EW7641 Weather Reports


time (UTC)temp
C
wind
direction
speed
KPH
gust
KPH
rain 1hr
cm
rain 24hr
cm
rain mn
cm
humidity
%
barometer
mb
20260505101837 6 325 6.4 19.3 0.03 0.33 0.03 91 1010.9
20260505100332 6 332 6.4 19.3 0.03 0.33 0.03 91 1010.4
20260505094843 6 322 11.3 24.1 0.00 0.30 0.00 89 1010.4
20260505093333 8 296 0.0 0.0 0.00 0.30 0.00 92 1010.2
20260505091900 7 296 0.0 1.6 0.00 0.30 0.00 92 1010.2
20260505090402 7 296 0.0 0.0 0.00 0.30 0.00 92 1010.0
20260505084838 7 296 0.0 0.0 0.00 0.30 0.00 92 1010.0
20260505083330 7 296 0.0 0.0 0.00 0.30 0.00 91 1009.9
20260505081832 7 296 0.0 0.0 0.00 0.30 0.00 91 1010.1
20260505080343 8 296 0.0 0.0 0.00 0.30 0.00 91 1010.1
20260505074839 8 296 0.0 3.2 0.00 0.30 0.00 91 1010.1
20260505073359 8 296 0.0 3.2 0.00 0.30 0.00 91 1010.6
20260505071838 8 296 0.0 0.0 0.00 0.30 0.00 91 1010.6
20260505070355 8 296 0.0 0.0 0.00 0.30 0.00 91 1011.0
20260505064828 8 296 0.0 0.0 0.00 0.30 0.00 91 1011.0
20260505063332 8 296 0.0 0.0 0.00 0.30 0.00 91 1011.1
20260505061840 8 296 0.0 0.0 0.00 0.30 0.00 91 1011.0
20260505060333 8 296 0.0 0.0 0.00 0.30 0.00 90 1011.1
20260505054834 8 296 0.0 0.0 0.00 0.30 0.30 91 1011.3
20260505053326 8 296 0.0 0.0 0.05 0.30 0.30 90 1011.2
20260505051847 8 296 0.0 1.6 0.10 0.30 0.30 90 1011.3
20260505050341 8 296 0.0 0.0 0.13 0.30 0.30 90 1011.4
20260505040343 8 296 0.0 4.8 0.18 0.18 0.18 86 1011.9
20260505034842 9 238 3.2 8.0 0.15 0.15 0.15 84 1011.7
20260505033329 10 219 0.0 4.8 0.08 0.08 0.08 79 1011.3
20260505031849 10 224 3.2 16.1 0.05 0.05 0.05 75 1011.0
20260505030339 11 193 9.7 19.3 0.00 0.00 0.00 61 1010.8
20260505024833 11 214 8.0 16.1 0.00 0.00 0.00 60 1010.4
20260505023329 12 280 0.0 0.0 0.00 0.00 0.00 61 1010.1
20260505021827 11 280 0.0 0.0 0.00 0.00 0.00 61 1010.0
20260505020341 12 280 0.0 0.0 0.00 0.00 0.00 62 1009.8
20260505014840 12 360 0.0 0.0 0.00 0.00 0.00 59 1009.7
20260505013325 13 280 0.0 0.0 0.00 0.00 0.00 55 1009.2
20260505011845 13 281 0.0 0.0 0.00 0.00 0.00 55 1009.5
20260505010340 13 281 0.0 0.0 0.00 0.00 0.00 55 1009.2
20260505004832 13 280 0.0 14.5 0.00 0.00 0.00 59 1009.5
20260505003343 13 307 9.7 19.3 0.00 0.00 0.00 52 1009.5
20260505001843 15 360 4.8 17.7 0.00 0.00 0.00 45 1009.5
20260505000336 15 301 3.2 17.7 0.00 0.00 0.00 42 1009.1
20260504234859 15 333 6.4 17.7 0.00 0.00 0.00 40 1008.9
20260504233336 16 312 4.8 16.1 0.00 0.00 0.00 37 1008.4
20260504231838 16 318 1.6 19.3 0.00 0.00 0.00 36 1007.8
20260504230409 16 360 11.3 22.5 0.00 0.00 0.00 35 1007.8
20260504224845 17 311 12.9 24.1 0.00 0.00 0.00 34 1007.5
20260504223355 17 340 12.9 24.1 0.00 0.00 0.00 33 1007.4
20260504221859 20 338 0.0 16.1 0.00 0.00 0.00 24 1007.0
20260504220419 20 328 8.0 14.5 0.00 0.00 0.00 24 1006.7
20260504214843 20 327 4.8 14.5 0.00 0.00 0.00 25 1006.6
20260504213353 20 316 0.0 0.0 0.00 0.00 0.00 25 1006.9
20260504211909 20 327 0.0 16.1 0.00 0.00 0.00 27 1007.1
20260504210414 20 16 4.8 20.9 0.00 0.00 0.00 27 1007.4
20260504204927 19 331 8.0 20.9 0.00 0.00 0.00 28 1007.7
20260504203358 18 360 12.9 24.1 0.00 0.00 0.00 28 1007.8
20260504201832 18 317 12.9 24.1 0.00 0.00 0.00 28 1007.9
20260504200341 19 319 12.9 25.7 0.00 0.00 0.00 27 1007.8
20260504194848 20 310 8.0 22.5 0.00 0.00 0.00 26 1008.0
20260504193342 19 11 6.4 25.7 0.00 0.00 0.00 27 1007.9
20260504191919 20 355 3.2 25.7 0.00 0.00 0.00 28 1007.8
20260504190330 20 343 1.6 27.4 0.00 0.00 0.00 27 1007.6
20260504184904 20 360 0.0 20.9 0.00 0.00 0.00 28 1007.9
20260504183403 20 360 9.7 22.5 0.00 0.00 0.00 24 1007.8
20260504181847 20 13 0.0 20.9 0.00 0.00 0.00 22 1007.6
20260504180334 21 322 0.0 0.0 0.00 0.00 0.00 23 1007.6
20260504174828 21 311 0.0 29.0 0.00 0.00 0.00 21 1007.5
20260504173343 21 190 1.6 16.1 0.00 0.00 0.00 19 1007.6
20260504171828 22 227 8.0 19.3 0.00 0.00 0.00 19 1007.8
20260504170437 22 204 0.0 16.1 0.00 0.00 0.00 20 1008.0
20260504160336 20 170 0.0 1.6 0.00 0.00 0.00 23 1008.9
20260504150333 17 212 0.0 22.5 0.00 0.00 0.00 25 1009.5
20260504140331 14 215 12.9 19.3 0.00 0.00 0.00 28 1009.7
20260504130344 12 198 14.5 27.4 0.00 0.00 0.00 32 1009.2
20260504110332 10 195 0.0 17.7 0.00 0.00 0.00 36 1009.6